GW1984 Weather Reports


time (UTC)temp
F
wind
direction
speed
knots
gust
knots
rain 1hr
in
rain 24hr
in
rain mn
in
humidity
%
barometer
mb
20260504040031 58 186 3.5 6.1 0.00 0.02 0.02 65 1005.5
20260504035512 58 185 3.5 6.1 0.00 0.02 0.02 65 1005.5
20260504035012 58 190 3.5 5.2 0.00 0.02 0.02 64 1005.6
20260504034530 59 170 3.5 5.2 0.00 0.02 0.02 64 1005.6
20260504034012 59 182 3.5 6.1 0.00 0.02 0.02 63 1005.6
20260504033511 59 202 3.5 7.0 0.00 0.02 0.02 63 1005.6
20260504033032 60 170 3.5 7.0 0.00 0.02 0.02 63 1005.5
20260504032514 60 202 2.6 6.1 0.00 0.02 0.02 62 1005.6
20260504032013 60 219 3.5 7.0 0.00 0.02 0.02 61 1005.6
20260504031535 60 181 4.3 7.8 0.00 0.02 0.02 61 1005.5
20260504031015 61 194 3.5 7.8 0.00 0.02 0.02 60 1005.5
20260504030512 61 171 3.5 7.0 0.00 0.02 0.02 60 1005.6
20260504030030 61 198 4.3 7.0 0.00 0.02 0.02 60 1005.4
20260504025511 61 221 2.6 7.8 0.00 0.02 0.02 59 1005.4
20260504025014 62 196 3.5 7.8 0.00 0.02 0.02 59 1005.3
20260504024529 62 226 4.3 7.8 0.00 0.02 0.02 58 1005.2
20260504024012 62 184 4.3 7.0 0.00 0.02 0.02 58 1005.2
20260504023512 62 216 4.3 7.0 0.00 0.02 0.02 57 1005.3
20260504023031 62 192 3.5 7.8 0.00 0.02 0.02 57 1005.2
20260504022516 62 212 4.3 7.8 0.00 0.02 0.02 57 1005.2
20260504022015 62 185 4.3 7.0 0.00 0.02 0.02 57 1005.2
20260504021530 62 192 4.3 7.0 0.00 0.02 0.02 56 1005.1
20260504021015 63 190 4.3 7.0 0.00 0.02 0.02 55 1005.1
20260504020511 63 178 3.5 6.1 0.00 0.02 0.02 54 1005.1
20260504020032 63 173 3.5 5.2 0.00 0.02 0.02 53 1005.1
20260504015514 64 178 2.6 6.1 0.00 0.02 0.02 52 1005.1
20260504015018 64 180 3.5 7.0 0.00 0.02 0.02 52 1005.0
20260504014534 64 190 4.3 7.8 0.00 0.02 0.02 51 1005.0
20260504014014 64 203 4.3 7.8 0.00 0.02 0.02 51 1005.0
20260504013514 64 194 4.3 7.0 0.00 0.02 0.02 52 1004.9
20260504013040 64 182 4.3 7.0 0.00 0.02 0.02 52 1004.9
20260504012514 64 173 4.3 6.1 0.00 0.02 0.02 52 1004.9
20260504012014 64 175 3.5 5.2 0.00 0.02 0.02 51 1004.9
20260504011534 65 180 3.5 7.0 0.00 0.02 0.02 50 1004.8
20260504011013 65 184 3.5 7.0 0.00 0.02 0.02 49 1004.8
20260504010513 66 203 2.6 4.3 0.00 0.02 0.02 49 1004.8
20260504010030 66 222 0.9 2.6 0.00 0.02 0.02 48 1004.7
20260504005514 66 225 0.9 2.6 0.00 0.02 0.02 48 1004.7
20260504005014 66 213 1.7 4.3 0.00 0.02 0.02 47 1004.7
20260504004534 67 215 1.7 4.3 0.00 0.02 0.02 47 1004.6
20260504004014 67 219 1.7 5.2 0.00 0.02 0.02 47 1004.7
20260504003516 67 244 2.6 5.2 0.00 0.02 0.02 46 1004.6
20260504003033 68 201 2.6 7.0 0.00 0.02 0.02 46 1004.7
20260504002514 68 211 3.5 7.0 0.00 0.02 0.02 45 1004.7
20260504002013 68 221 2.6 7.8 0.00 0.02 0.02 45 1004.7
20260504001537 69 211 3.5 7.8 0.00 0.02 0.02 44 1004.7
20260504001014 69 227 2.6 10.4 0.00 0.02 0.02 44 1004.7
20260504000513 69 211 5.2 10.4 0.00 0.02 0.02 43 1004.7
20260504000032 69 275 2.6 9.6 0.00 0.02 0.02 43 1004.7
20260503235515 69 225 5.2 11.3 0.00 0.02 0.02 42 1004.8
20260503235013 69 252 6.1 11.3 0.00 0.02 0.02 42 1004.7
20260503234539 70 249 6.1 10.4 0.00 0.02 0.02 42 1004.8
20260503234014 70 242 5.2 10.4 0.00 0.02 0.02 42 1004.7
20260503233513 70 224 5.2 12.2 0.00 0.02 0.02 42 1004.8
20260503233039 70 240 7.0 12.2 0.00 0.02 0.02 41 1004.8
20260503232513 70 268 5.2 10.4 0.00 0.02 0.02 42 1004.9
20260503232014 70 265 4.3 10.4 0.00 0.02 0.02 42 1004.9
20260503231534 69 263 7.8 13.0 0.00 0.02 0.02 41 1004.9
20260503231015 69 227 7.8 13.0 0.00 0.02 0.02 42 1005.0
20260503230515 70 254 8.7 13.9 0.00 0.02 0.02 41 1005.1
20260503230030 70 240 7.8 13.9 0.00 0.02 0.02 41 1005.1
20260503225514 70 252 10.4 13.9 0.00 0.02 0.02 41 1005.1
20260503225014 70 267 6.1 14.8 0.00 0.02 0.02 44 1005.1
20260503224529 70 271 8.7 14.8 0.00 0.02 0.02 43 1005.1
20260503224012 69 238 7.8 14.8 0.00 0.02 0.02 44 1005.1
20260503223511 69 246 8.7 14.8 0.00 0.02 0.02 44 1005.2
20260503223029 69 250 10.4 15.6 0.00 0.02 0.02 42 1005.2
20260503222513 69 240 9.6 15.6 0.00 0.02 0.02 43 1005.2
20260503222011 70 225 7.8 16.5 0.00 0.02 0.02 41 1005.3
20260503221535 69 259 10.4 16.5 0.00 0.02 0.02 43 1005.2
20260503221013 70 272 10.4 16.5 0.00 0.02 0.02 43 1005.3
20260503220515 70 240 6.1 13.9 0.00 0.02 0.02 43 1005.2
20260503220030 69 267 9.6 14.8 0.00 0.02 0.02 43 1005.2
20260503215514 69 249 8.7 16.5 0.00 0.02 0.02 43 1005.2
20260503215012 69 227 10.4 18.2 0.00 0.02 0.02 44 1005.2
20260503214531 69 261 9.6 18.2 0.00 0.02 0.02 43 1005.2
20260503214012 68 257 8.7 18.2 0.00 0.02 0.02 44 1005.2
20260503213514 69 205 7.8 18.2 0.00 0.02 0.02 44 1005.3
20260503213033 69 222 7.8 15.6 0.00 0.02 0.02 44 1005.3
20260503212511 68 274 8.7 15.6 0.00 0.02 0.02 44 1005.4
20260503212012 68 252 7.0 15.6 0.00 0.02 0.02 46 1005.4
20260503211529 68 227 7.0 16.5 0.00 0.02 0.02 46 1005.6
20260503211011 68 236 7.0 19.1 0.00 0.02 0.02 46 1005.7
20260503210515 67 240 11.3 19.1 0.00 0.02 0.02 45 1005.7
20260503210033 67 249 10.4 20.9 0.00 0.02 0.02 44 1005.7
20260503205514 67 264 13.9 20.9 0.00 0.02 0.02 44 1005.8
20260503205014 67 236 8.7 18.2 0.00 0.02 0.02 46 1005.9
20260503204532 67 217 11.3 19.1 0.00 0.02 0.02 46 1006.0
20260503204011 67 250 12.2 20.0 0.00 0.02 0.02 46 1006.1
20260503203514 67 233 10.4 20.0 0.00 0.02 0.02 45 1006.1
20260503203033 66 228 12.2 21.7 0.00 0.02 0.02 48 1006.2
20260503202513 66 242 9.6 21.7 0.00 0.02 0.02 47 1006.3
20260503202013 66 254 11.3 20.0 0.00 0.02 0.02 47 1006.3
20260503201532 66 217 10.4 18.2 0.00 0.02 0.02 46 1006.5
20260503201015 66 259 9.6 21.7 0.00 0.02 0.02 46 1006.5
20260503200519 65 243 9.6 21.7 0.00 0.02 0.02 49 1006.6
20260503200031 65 219 11.3 20.9 0.00 0.02 0.02 47 1006.6
20260503195513 65 217 11.3 23.5 0.00 0.02 0.02 49 1006.6
20260503195018 65 242 10.4 23.5 0.00 0.02 0.02 48 1006.8
20260503194535 65 236 13.0 22.6 0.00 0.02 0.02 49 1006.8
20260503194010 64 213 13.9 26.9 0.00 0.02 0.02 48 1006.8
20260503193512 64 209 16.5 26.9 0.00 0.02 0.02 47 1006.9
20260503193028 64 214 13.9 26.1 0.00 0.02 0.02 46 1007.2
20260503192514 64 224 14.8 26.1 0.00 0.02 0.02 48 1007.4
20260503192014 65 228 10.4 22.6 0.00 0.02 0.02 46 1007.4
20260503191534 64 242 10.4 23.5 0.00 0.02 0.02 47 1007.5
20260503191011 64 232 13.0 23.5 0.00 0.02 0.02 48 1007.5
20260503190512 64 217 12.2 26.9 0.00 0.02 0.02 49 1007.6
20260503190030 64 235 11.3 26.9 0.00 0.02 0.02 48 1007.6
20260503185512 63 242 10.4 20.9 0.00 0.02 0.02 55 1007.7
20260503185010 62 183 11.3 23.5 0.00 0.02 0.02 57 1007.7
20260503184531 61 183 13.9 23.5 0.00 0.02 0.02 56 1007.8
20260503184014 61 182 13.0 22.6 0.00 0.02 0.02 57 1008.0
20260503183511 61 180 11.3 23.5 0.00 0.02 0.02 57 1008.1
20260503183031 60 169 13.0 24.3 0.00 0.02 0.02 57 1008.1
20260503182509 59 167 13.9 25.2 0.00 0.02 0.02 59 1008.5
20260503182014 59 209 15.6 25.2 0.00 0.02 0.02 58 1008.4
20260503181528 59 210 15.6 25.2 0.00 0.02 0.02 57 1008.5
20260503181010 59 218 14.8 22.6 0.00 0.02 0.02 55 1008.4
20260503180512 60 173 15.6 22.6 0.00 0.02 0.02 55 1008.5
20260503180032 60 195 11.3 24.3 0.00 0.02 0.02 58 1008.4
20260503175511 59 200 14.8 24.3 0.00 0.02 0.02 55 1008.4
20260503175013 59 209 15.6 26.9 0.00 0.02 0.02 55 1008.4
20260503174529 59 205 16.5 27.8 0.00 0.02 0.02 54 1008.5
20260503174009 59 188 17.4 27.8 0.00 0.02 0.02 55 1008.3
20260503173510 59 169 14.8 27.8 0.00 0.02 0.02 55 1008.4
20260503173030 59 186 16.5 25.2 0.00 0.02 0.02 53 1008.4
20260503172511 60 199 13.9 28.7 0.00 0.02 0.02 54 1008.5
20260503172010 59 180 14.8 28.7 0.00 0.02 0.02 54 1008.5
20260503171530 60 212 11.3 24.3 0.00 0.02 0.02 53 1008.6
20260503171011 59 192 14.8 24.3 0.00 0.02 0.02 54 1008.7
20260503170511 59 152 12.2 31.3 0.00 0.02 0.02 53 1008.7
20260503151009 49 173 3.5 12.2 0.02 0.02 0.02 81 1011.5
20260503150509 49 198 7.0 12.2 0.02 0.02 0.02 81 1011.9
20260503131016 49 195 7.0 12.2 0.00 0.00 0.00 66 1012.7
20260503130510 49 169 7.0 14.8 0.00 0.00 0.00 64 1012.8
20260503110513 48 211 5.2 13.0 0.00 0.00 0.00 59 1012.7
20260503090513 48 207 6.1 10.4 0.00 0.00 0.00 55 1013.1
20260503081530 47 216 6.1 9.6 0.00 0.00 0.00 56 1013.5
20260503081014 47 207 5.2 8.7 0.00 0.00 0.00 56 1013.6
20260503080513 46 196 4.3 7.8 0.00 0.00 0.00 56 1013.6
20260503072513 47 182 6.1 10.4 0.00 0.00 0.00 55 1013.6
20260503072011 47 191 5.2 10.4 0.00 0.00 0.00 56 1013.6
20260503071541 47 208 5.2 8.7 0.00 0.00 0.00 55 1013.7
20260503071013 47 216 5.2 8.7 0.00 0.00 0.00 55 1013.7
20260503070513 47 211 6.1 8.7 0.00 0.00 0.00 55 1013.8
20260503055009 48 217 5.2 8.7 0.00 0.00 0.00 53 1014.3
20260503054542 48 220 5.2 8.7 0.00 0.00 0.00 53 1014.3
20260503054013 48 224 5.2 8.7 0.00 0.00 0.00 53 1014.4
20260503053512 48 198 5.2 8.7 0.00 0.00 0.00 53 1014.5
20260503053033 48 186 5.2 8.7 0.00 0.00 0.00 53 1014.4
20260503052512 48 205 5.2 8.7 0.00 0.00 0.00 53 1014.4
20260503052015 48 202 4.3 7.8 0.00 0.00 0.00 53 1014.4
20260503051532 48 217 4.3 8.7 0.00 0.00 0.00 53 1014.5
20260503051012 48 185 5.2 8.7 0.00 0.00 0.00 53 1014.5
20260503050512 48 202 6.1 9.6 0.00 0.00 0.00 52 1014.6
20260503050037 48 202 6.1 9.6 0.00 0.00 0.00 53 1014.7
20260503045514 48 219 6.1 8.7 0.00 0.00 0.00 53 1014.6
20260503045013 48 193 4.3 7.8 0.00 0.00 0.00 53 1014.7
20260503044531 48 212 4.3 7.8 0.00 0.00 0.00 53 1014.7
20260503044010 48 196 5.2 7.8 0.00 0.00 0.00 53 1014.8
20260503043509 48 200 4.3 7.8 0.00 0.00 0.00 53 1014.9
20260503043030 48 212 5.2 7.8 0.00 0.00 0.00 52 1014.8
20260503042512 48 225 5.2 7.8 0.00 0.00 0.00 53 1014.8
20260503042014 48 199 5.2 7.8 0.00 0.00 0.00 53 1014.7
20260503041536 48 202 4.3 7.8 0.00 0.00 0.00 52 1014.9
20260503041009 48 198 4.3 7.8 0.00 0.00 0.00 53 1014.9
20260503040513 48 202 4.3 7.8 0.00 0.00 0.00 53 1015.0